Вернуться в каталог

STARLINK-34510

АктивенСвязьVLEO
NORAD 64596·PAYLOAD·🇺🇸 United States

Запущен Jun 25, 2025 с Cape Canaveral Space Force Station

Loading…

Ближайшие Пролёты (ближайшие 24 часа)

TLE

СвежийSource: CelesTrak SupGP

Эпоха: Sep 14, 2026, 21:34 UTC

1 64596C 25137C   26257.89909722 -.00016697  00000+0 -49311-3 0  2574
2 64596  53.1570 173.7739 0001184  82.8792 163.3233 15.34411200    13

Отслеживайте STARLINK-34510 в реальном времени с AllMySat

Download on the App Store